sat.trackr.live / text

‹ back to catalog

STARLINK-2234

NORAD 48580 · 2021-041AD

PAYLOAD ACTIVE UNKNOWN

§ Identity

Operator
Country
US
Launch date
2021-05-15
Launch site
AFETR
Launch vehicle
Mass (kg)
RCS (m²)

Purposes: comms

External: N2YO · Heavens-Above · Gunter

§ Orbital elements

Epoch: 2026-09-09T11:40:52.432608Z

Period
94.01 min
Inclination
53.1601°
Eccentricity
0.0000969
Mean motion
15.31725196 rev/d
Perigee alt
470.0 km
Apogee alt
471.3 km
Semi-major
6,848.8 km
B*
1.0151e-4
RAAN
325.6753°
Arg perigee
85.9712°
Mean anomaly
274.1400°
Rev number
29,380

§ Raw data

STARLINK-22341 48580U 21041AD  26252.48671797  .00002789  00000+0  10151-3 0  99952 48580  53.1601 325.6753 0000969  85.9712 274.1400 15.31725196293800

JSON: /api/v1/satellites/48580 · /tle

For live sub-satellite position, see the globe view (requires WebGL).

§ Visibility from observer

Set your observer location to see the next 7 days of passes ≥ 10°. The values pass through the URL so the page stays shareable.

No JS? Fill the form by hand. The geolocation button needs JavaScript.